Temp
64 64 64 64 64 64 64 63 64 64 64 64 64 64 64 64 64 79 89 91 92 82 84 96 95 94 94 89 93 76 66 65 76 75 76 87 85 91 91 90 90 91 88 91 95
63 63 63 63 64 63 63 64 64 64 63 64 63 64 64 64 79 89 88 84 83 83 90 92 89 92 88 91 78 68 61 70 87 86 84 87 87 90 87 86 84 88 92 93 95
63 63 62 63 63 63 63 64 64 63 63 63 63 64 64 68 83 93 82 84 84 85 96 97 96 92 87 92 73 68 63 81 85 88 89 90 85 85 86 76 85 83 87 91 91
62 62 62 62 63 63 62 62 63 63 63 63 64 64 64 78 78 93 83 84 84 91 96 95 92 87 84 81 91 73 79 92 94 93 90 85 91 76 77 72 81 90 90 89 89
62 62 62 62 62 62 62 62 62 62 62 63 64 64 73 83 91 93 83 86 93 92 90 91 87 73 79 86 93 78 91 94 95 93 94 91 85 79 80 83 83 94 90 88 90
61 61 61 61 61 62 62 61 61 62 62 63 64 64 79 83 101 100 98 95 97 94 92 90 82 91 89 87 83 94 93 93 94 94 94 90 89 88 86 87 82 91 88 90 89
61 61 61 61 61 61 61 61 61 61 62 63 64 76 87 92 102 100 103 99 102 89 77 80 82 86 81 83 97 96 88 92 92 93 91 93 84 83 91 85 82 88 89 89 90
61 60 60 61 61 60 60 60 60 61 62 64 65 80 89 104 107 98 103 103 103 79 75 83 103 97 88 84 88 85 67 70 90 93 90 89 75 85 91 85 82 86 88 88 90
60 60 60 60 60 59 59 59 61 62 64 67 75 84 90 93 97 98 104 97 103 101 92 105 100 94 87 79 81 77 57 63 75 94 90 85 78 86 91 86 83 83 85 87 88
60 60 59 60 59 58 58 59 65 64 70 85 89 87 95 92 100 98 106 103 99 99 97 97 94 78 77 67 70 61 69 63 59 89 91 83 81 86 90 86 82 83 84 86 88
60 60 59 59 59 57 63 80 82 83 89 91 94 93 98 102 104 95 102 99 100 96 88 82 80 63 77 87 88 87 75 70 64 92 89 81 82 84 89 87 84 82 81 85 87
59 59 59 59 58 57 66 85 98 102 86 96 99 100 104 104 92 97 102 92 91 86 90 66 61 77 89 92 91 90 87 86 90 93 85 77 82 85 88 87 86 83 82 84 88
59 59 58 58 57 61 82 92 106 107 91 93 100 99 99 100 90 91 95 93 89 84 77 69 77 86 86 90 91 89 86 87 86 88 69 64 77 82 87 90 90 88 87 87 85
59 58 58 57 58 88 86 98 103 106 81 86 91 98 101 99 88 96 99 94 88 80 71 68 81 82 85 89 93 86 94 92 89 86 72 80 61 69 69 82 87 88 87 88 87
58 58 57 55 69 91 103 109 109 102 63 91 92 108 102 94 91 90 99 92 82 81 70 66 79 84 86 89 94 88 95 92 91 86 78 74 64 59 64 67 82 88 91 91 91
58 57 57 65 71 87 102 107 102 78 64 85 94 92 91 93 90 93 91 96 92 82 82 81 94 91 91 96 97 97 93 92 91 88 75 71 66 52 57 67 83 89 92 94 92
56 56 57 74 92 105 106 98 77 68 90 84 86 92 89 87 87 88 84 83 79 72 71 81 83 93 96 91 97 95 88 73 68 74 74 75 60 62 67 73 89 90 92 94 96
54 54 60 77 98 102 99 85 67 82 84 94 91 90 84 89 88 86 82 78 85 82 78 75 77 90 98 93 89 91 86 69 65 68 73 78 67 77 82 83 96 96 96 95 95
52 69 84 92 86 96 90 75 74 81 93 91 90 84 84 89 89 88 83 80 83 84 73 77 75 93 95 99 96 88 85 95 85 86 78 77 78 86 89 95 95 94 95 94 95
78 88 96 102 97 95 85 67 76 87 95 96 84 88 82 86 86 87 83 88 86 89 91 83 72 89 94 98 98 94 97 83 84 68 65 69 64 53 66 89 93 92 93 94 95
79 91 100 105 101 90 79 82 77 93 98 89 86 86 89 88 89 88 87 93 94 94 98 93 87 76 91 90 88 90 88 90 90 83 73 66 72 84 80 92 92 93 95 94 95
91 88 101 104 84 89 85 88 75 96 99 92 88 90 84 88 89 88 88 93 102 100 91 96 91 82 87 98 100 97 91 92 80 77 83 68 70 97 95 97 97 95 96 97 97
85 91 102 101 81 86 92 94 95 94 95 94 91 92 86 80 81 89 93 99 100 97 92 96 87 78 82 91 95 91 94 94 90 88 70 62 55 85 94 96 97 97 97 94 95
88 86 92 93 94 89 89 90 90 97 94 95 93 96 92 87 86 83 91 97 99 98 78 91 91 85 76 79 87 84 89 91 90 75 77 77 78 87 87 93 96 97 98 96 95
93 91 95 84 88 92 94 93 89 86 95 95 91 92 89 70 62 73 85 91 97 82 95 96 86 89 89 88 87 86 86 88 85 83 80 77 80 80 74 74 95 97 98 96 95
82 82 88 91 93 91 82 88 88 86 89 87 87 89 89 74 69 65 74 86 70 82 93 97 84 88 84 83 81 83 89 85 86 86 90 87 82 85 85 94 94 94 94 94 95
83 87 85 78 91 89 86 86 87 88 90 91 88 86 87 84 87 82 88 94 73 71 83 91 82 75 78 88 84 77 86 86 87 92 91 82 88 86 91 93 93 93 94 93 94
MSLP
1012.34 1012.03 1011.75 1011.54 1011.33 1011.14 1011.01 1010.95 1010.77 1010.63 1010.54 1010.39 1010.31 1010.14 1009.94 1009.66 1009.18 1008.43 1006.06 1004.69 1004.63 1004.66 1005.02 1004.02 1003.74 1003.64 1003.58 1003.43 1002.80 1004.47 1005.55 1004.04 1002.08 1001.72 1002.76 1002.48 1002.34 1002.73 1003.01 1002.87 1003.64 1004.43 1005.64 1006.53 1007.52
1012.38 1012.09 1011.77 1011.51 1011.27 1011.09 1010.98 1010.84 1010.66 1010.50 1010.42 1010.30 1010.22 1010.12 1009.92 1009.74 1008.49 1006.23 1004.64 1004.14 1004.31 1004.56 1004.64 1003.67 1003.38 1003.27 1002.95 1002.24 1004.88 1005.52 1005.63 1002.99 1001.09 1001.29 1001.35 1001.85 1001.83 1002.17 1002.89 1003.63 1004.53 1005.18 1006.07 1007.04 1007.59
1012.39 1012.11 1011.81 1011.49 1011.20 1011.02 1010.86 1010.68 1010.53 1010.39 1010.26 1010.17 1010.02 1009.91 1009.87 1009.70 1007.41 1004.09 1004.57 1004.18 1004.20 1004.56 1003.94 1003.15 1002.89 1002.86 1002.46 1001.98 1004.97 1005.59 1005.19 1002.36 1001.29 1000.91 1000.82 1001.06 1002.30 1002.89 1003.59 1004.61 1004.81 1005.65 1006.34 1007.23 1007.86
1012.46 1012.11 1011.80 1011.51 1011.20 1010.95 1010.78 1010.63 1010.40 1010.23 1010.17 1010.07 1009.87 1009.77 1009.74 1008.79 1005.41 1004.02 1004.51 1004.33 1004.31 1004.48 1003.73 1003.21 1002.99 1002.57 1002.03 1001.81 1001.45 1003.27 1002.77 1000.18 999.80 999.99 1000.58 1001.25 1001.87 1004.13 1005.03 1005.79 1006.09 1005.84 1006.73 1007.69 1008.12
1012.51 1012.13 1011.77 1011.44 1011.12 1010.87 1010.68 1010.45 1010.22 1010.13 1010.10 1009.94 1009.77 1009.67 1009.14 1006.80 1003.71 1003.99 1004.47 1004.44 1004.58 1004.63 1004.34 1003.70 1003.35 1003.51 1002.06 1000.90 1000.37 1002.20 1000.25 999.95 999.71 999.60 999.93 1001.18 1002.29 1003.52 1005.05 1005.43 1005.79 1005.75 1007.01 1007.73 1007.93
1012.50 1012.11 1011.77 1011.41 1011.07 1010.77 1010.54 1010.30 1010.09 1009.99 1009.97 1009.81 1009.63 1009.59 1008.06 1004.65 1003.01 1003.35 1003.65 1004.23 1003.99 1004.16 1004.37 1004.16 1003.95 1002.55 1001.13 1000.73 1000.60 999.79 999.47 999.58 999.61 999.71 1000.02 1000.58 1001.57 1002.71 1004.14 1005.01 1005.83 1005.71 1006.91 1007.50 1008.11
1012.48 1012.09 1011.71 1011.33 1011.01 1010.67 1010.44 1010.14 1009.94 1009.82 1009.77 1009.65 1009.49 1008.90 1005.93 1002.73 1002.61 1002.87 1002.89 1003.32 1002.93 1004.86 1005.18 1004.21 1002.63 1002.92 1002.01 1000.99 999.58 999.32 999.51 999.32 999.56 999.67 999.99 1000.77 1001.46 1002.39 1003.35 1005.19 1005.72 1005.69 1006.49 1007.40 1007.77
1012.46 1012.05 1011.66 1011.23 1010.90 1010.59 1010.33 1010.03 1009.76 1009.62 1009.55 1009.43 1009.39 1008.14 1003.63 1002.19 1002.11 1002.67 1002.51 1002.01 1002.15 1004.05 1005.72 1003.25 1001.51 1001.72 1001.86 1001.57 1000.37 1000.79 1002.35 1000.94 999.62 999.46 1000.30 1000.59 1001.45 1002.55 1003.30 1004.67 1005.61 1005.89 1006.40 1007.11 1007.62
1012.37 1011.97 1011.55 1011.13 1010.83 1010.49 1010.22 1009.82 1009.42 1009.29 1009.23 1009.13 1008.65 1006.68 1002.73 1002.88 1002.36 1002.42 1002.04 1001.80 1001.41 1002.52 1002.72 1001.26 1001.70 1001.33 1001.82 1001.58 1000.30 1001.51 1004.05 1001.87 1001.06 999.29 999.79 1000.57 1001.04 1002.20 1002.94 1004.37 1005.50 1006.35 1006.59 1006.83 1007.56
1012.22 1011.85 1011.43 1011.05 1010.73 1010.41 1010.02 1009.58 1008.87 1008.96 1008.63 1007.79 1006.42 1004.84 1002.23 1001.62 1001.79 1002.29 1001.70 1001.58 1001.39 1001.05 1000.88 1000.91 1001.55 1002.71 1002.16 1001.21 1000.21 1002.31 1002.57 1003.61 1001.93 999.14 998.97 999.89 1000.71 1001.85 1002.54 1003.98 1005.37 1006.21 1006.55 1006.71 1007.37
1012.10 1011.66 1011.33 1010.95 1010.66 1010.42 1009.83 1008.51 1008.33 1006.99 1005.52 1003.32 1002.19 1000.79 999.95 1000.44 1001.55 1001.92 1001.61 1001.37 1000.83 1000.89 1000.93 1003.06 1002.39 1003.80 1000.70 999.57 998.37 998.32 999.33 1000.50 1000.82 998.85 998.86 1000.03 1000.76 1001.59 1002.57 1003.59 1004.78 1005.74 1006.75 1006.80 1007.21
1011.97 1011.50 1011.15 1010.89 1010.58 1010.41 1009.94 1006.26 1002.30 1001.01 1002.15 1001.93 1000.65 999.85 999.41 1000.19 1000.76 1000.99 1001.55 1001.26 1000.71 1000.69 1001.50 1004.54 1003.55 1001.30 1000.15 997.95 997.01 996.52 996.32 996.65 997.32 998.31 999.48 1001.08 1000.79 1002.27 1002.91 1003.37 1004.14 1005.57 1006.29 1006.51 1006.79
1011.75 1011.35 1010.99 1010.78 1010.45 1010.01 1007.05 1004.07 1001.77 1000.68 999.83 1000.17 999.31 998.67 999.11 999.91 1000.30 1001.14 1001.77 1001.41 1001.01 1001.51 1003.33 1004.49 1003.08 1000.89 999.70 997.02 995.55 995.40 995.21 995.42 996.38 998.56 1001.42 1003.04 1002.03 1002.62 1003.30 1003.49 1003.49 1004.54 1005.94 1006.19 1006.72
1011.47 1011.09 1010.83 1010.63 1010.55 1006.14 1004.89 1002.72 1002.67 1001.55 999.88 998.70 998.99 998.35 998.54 999.57 1000.34 1001.56 1001.47 1001.65 1001.89 1002.61 1003.96 1004.32 1001.60 1000.61 998.38 996.07 994.83 994.10 994.55 994.79 995.72 997.37 1000.59 1002.65 1003.57 1004.99 1005.94 1004.13 1003.47 1003.67 1004.50 1005.39 1006.22
1011.12 1010.79 1010.59 1010.77 1008.62 1004.29 1001.41 1001.13 1001.01 1000.85 998.54 996.93 997.85 997.79 998.15 998.95 1000.03 1001.13 1001.58 1001.69 1001.94 1002.81 1005.69 1003.52 1001.42 999.35 997.45 995.81 994.91 994.31 994.53 994.65 995.11 996.32 999.09 1000.86 1004.08 1006.66 1004.76 1004.08 1002.75 1002.63 1002.69 1003.54 1004.82
1010.67 1010.43 1010.29 1009.43 1008.24 1004.05 1002.50 1001.35 1001.27 1000.16 997.40 996.65 997.00 997.33 998.09 998.59 999.71 1000.44 1001.18 1001.93 1002.11 1003.39 1003.71 1002.16 999.87 998.68 996.77 995.32 994.65 994.47 994.32 994.40 994.78 995.52 997.36 1001.23 1003.71 1006.63 1005.70 1003.13 1001.81 1001.54 1001.90 1002.28 1003.53
1010.15 1009.93 1010.01 1007.83 1003.74 1002.14 1001.95 1001.55 1000.26 998.30 996.09 996.33 996.83 997.04 997.80 998.12 999.09 999.89 1000.39 1001.25 1001.53 1002.35 1001.45 1000.46 998.68 996.90 996.00 994.88 994.06 994.09 993.90 994.62 995.34 995.06 996.48 999.59 1003.09 1004.31 1002.94 1001.87 1000.36 1000.20 1000.71 1001.53 1002.09
1009.30 1009.30 1007.69 1006.13 1003.21 1002.89 1002.07 1001.12 999.05 996.59 995.54 995.29 996.11 996.96 997.25 997.53 997.97 999.02 999.95 1000.59 1000.77 1001.27 1000.29 998.45 996.33 995.43 994.39 994.25 993.78 993.32 993.96 994.57 993.92 994.55 996.13 998.62 1000.22 999.67 999.59 999.88 998.81 999.31 999.83 1000.77 1001.38
1008.51 1007.54 1005.51 1003.32 1004.37 1003.39 1001.91 1000.40 998.61 997.13 994.51 994.75 995.61 996.07 996.44 996.57 996.67 997.45 998.85 999.46 999.92 999.90 999.93 997.90 997.01 995.61 994.61 993.71 993.59 992.91 992.62 992.33 992.68 993.13 994.71 997.55 999.39 998.42 998.29 996.95 997.98 998.87 999.54 1000.13 1000.68
1006.56 1004.18 1002.09 1001.92 1003.03 1002.55 1001.11 1000.00 999.41 997.45 994.49 993.95 994.32 994.85 994.95 995.23 995.69 996.03 997.09 997.91 997.66 997.51 997.96 998.11 997.89 995.44 994.31 993.75 993.28 992.99 992.72 992.27 992.42 994.01 995.74 998.29 1000.49 1001.67 999.98 997.31 997.46 998.40 998.95 999.79 1000.38
1006.13 1001.65 1001.01 1001.51 1001.85 1001.25 999.65 998.44 998.21 996.00 994.50 994.58 994.54 994.34 994.05 994.10 994.74 994.61 994.95 995.02 995.19 995.05 995.13 995.56 995.45 996.42 993.87 993.06 992.49 992.69 992.61 992.44 992.55 993.95 995.03 997.10 998.63 998.48 998.23 996.98 997.02 997.60 998.22 999.19 1000.02
1003.95 1000.49 1000.77 1001.02 1000.74 999.51 998.33 997.01 995.57 994.51 994.65 995.01 995.21 994.95 994.90 994.62 994.00 994.03 993.64 993.21 992.94 993.51 994.01 994.39 994.09 993.75 992.88 992.27 992.39 992.26 992.29 992.45 993.11 993.99 994.72 997.52 998.51 997.10 996.71 996.52 996.19 996.56 997.34 998.60 999.67
1003.53 1000.79 1000.69 1000.38 999.05 997.66 996.94 995.63 995.45 994.79 994.28 994.04 994.15 995.00 995.91 996.27 995.29 993.96 993.35 993.46 993.59 993.78 993.87 993.80 994.00 993.41 992.54 992.33 992.83 992.24 992.19 992.42 993.35 994.87 996.68 998.31 999.54 997.85 997.26 996.37 996.51 996.31 996.89 998.20 999.19
1003.48 999.88 1000.21 1000.17 999.05 997.79 995.91 995.41 995.15 995.39 995.31 995.08 994.69 994.47 994.69 995.45 996.25 995.47 994.22 993.96 994.12 993.75 994.39 994.15 993.44 993.25 993.23 994.16 993.99 993.43 993.03 992.81 993.04 994.29 996.79 997.65 997.79 997.44 997.82 997.02 996.95 996.65 996.93 997.96 998.68
1002.42 999.50 998.59 998.76 998.37 996.97 995.90 995.16 995.29 995.48 995.55 995.61 995.53 995.49 995.81 997.85 999.51 999.84 995.91 994.80 994.59 994.78 994.61 994.18 993.46 993.27 993.57 994.40 994.83 994.50 993.95 993.87 994.06 994.99 994.74 996.41 996.78 997.90 998.90 998.84 996.98 996.88 996.88 997.57 998.31
1004.46 1003.01 1001.04 998.79 997.87 997.15 996.67 996.27 995.96 996.68 996.72 996.39 996.30 996.86 997.81 999.57 1001.67 1000.50 999.93 996.50 998.17 996.66 995.19 994.72 994.46 994.24 994.18 994.88 995.73 994.50 993.94 994.51 994.18 994.08 993.55 994.57 995.38 998.13 998.25 998.14 997.13 997.00 997.38 997.78 998.07
1007.34 1005.32 1003.48 1000.43 998.54 998.23 998.51 998.13 997.80 998.25 998.05 997.85 998.36 998.42 998.39 1000.36 1000.27 999.61 998.68 997.61 997.28 998.51 996.05 994.77 995.80 996.28 994.69 994.37 995.03 995.66 994.13 994.85 994.83 994.73 994.16 994.51 995.22 996.29 996.24 996.55 996.75 997.13 997.64 998.07 998.57
Wind_Speed
15 14 13 12 10 8 7 6 5 5 5 7 7 8 10 11 14 8 11 3 9 14 8 11 7 9 9 11 15 2 4 4 13 14 13 11 14 9 9 12 9 9 22 22 22
15 14 14 12 11 9 7 6 6 6 6 7 8 9 9 10 10 14 3 12 13 12 9 11 11 12 11 12 8 7 5 5 5 11 16 19 9 15 11 12 22 17 21 22 21
16 15 14 13 11 10 8 7 6 7 7 7 8 9 8 10 9 4 5 11 12 12 16 11 11 12 14 11 10 10 7 9 13 19 6 13 24 9 9 6 18 22 24 21 19
16 15 14 13 12 10 8 7 7 8 7 7 8 8 9 9 3 5 7 9 10 10 12 6 8 10 8 8 14 7 21 6 7 20 10 7 11 8 5 9 4 22 23 20 20
16 15 14 14 13 11 9 8 8 8 7 7 8 7 8 9 1 11 10 8 13 12 10 6 9 5 5 10 4 2 8 12 7 5 14 15 16 12 11 8 7 19 21 21 18
17 16 15 14 13 11 10 9 9 9 8 7 7 8 8 10 7 15 16 14 15 15 12 3 12 14 13 6 6 9 5 17 5 12 6 12 13 7 19 18 15 22 21 20 18
17 16 15 15 13 12 10 10 10 9 8 8 7 7 11 2 12 8 11 15 19 17 9 9 28 18 6 10 16 10 13 14 9 15 9 12 8 12 11 19 5 20 19 19 18
17 17 16 15 14 13 11 11 11 10 9 8 7 8 4 2 9 8 11 13 11 29 16 31 9 7 10 8 8 16 13 7 11 9 12 9 12 12 17 16 11 13 16 18 19
17 17 16 15 14 14 12 14 14 11 9 6 7 9 5 3 12 10 14 12 6 15 28 9 9 14 4 11 5 8 8 16 11 12 14 10 16 14 19 19 17 14 14 15 19
18 17 16 14 14 14 14 13 4 7 8 10 12 10 13 14 13 7 10 12 13 12 15 14 6 10 7 7 8 10 9 7 17 12 12 21 18 15 14 20 17 16 13 12 16
18 17 15 14 14 12 12 5 6 7 13 12 15 16 20 18 19 14 15 6 12 12 8 23 5 11 12 14 10 16 24 33 32 12 14 9 15 15 12 19 17 15 15 15 19
18 15 15 14 13 11 7 8 13 5 9 20 19 21 18 17 14 9 2 8 6 10 7 15 9 18 21 19 16 7 5 10 9 9 5 8 17 13 10 14 15 17 19 15 16
17 16 14 12 12 5 13 18 16 13 6 16 11 15 16 17 11 8 7 6 10 4 16 5 21 22 23 21 10 2 2 6 10 16 28 16 9 11 10 7 13 21 16 17 17
17 15 13 10 4 9 10 19 18 15 9 20 19 16 14 13 10 9 7 10 7 4 19 5 20 25 24 8 7 7 2 5 3 12 4 13 7 14 18 9 12 19 21 20 20
17 14 12 6 13 8 1 5 6 6 9 25 25 13 13 16 16 15 9 9 16 12 12 15 28 16 3 11 5 6 0 9 6 5 11 7 9 10 17 13 14 15 19 24 23
16 14 10 8 8 17 15 4 6 8 9 12 17 19 18 16 18 17 13 12 10 9 22 28 21 22 10 13 9 5 8 7 13 9 8 18 13 5 11 22 17 18 17 17 24
15 11 8 10 5 5 8 8 8 8 10 20 18 20 19 14 17 12 11 18 13 9 16 23 25 25 21 15 13 7 3 5 3 4 1 27 15 13 29 24 20 19 20 18 21
12 9 14 11 7 10 7 9 13 14 23 16 18 18 20 18 17 19 14 14 15 15 16 19 6 8 14 10 10 12 12 8 14 9 9 14 7 11 28 32 20 20 20 20 18
10 6 6 9 14 10 7 10 13 20 9 17 18 19 18 21 16 15 15 8 13 21 10 8 11 20 23 10 11 15 11 14 11 9 5 11 9 9 16 21 20 19 19 18 17
5 9 9 11 12 8 9 6 6 18 14 19 17 15 18 20 20 21 23 26 26 26 24 10 9 17 20 10 12 15 15 11 5 3 3 19 9 7 26 12 19 18 17 16 15
7 7 7 9 9 8 10 16 16 27 6 10 9 3 14 17 16 16 17 23 34 30 24 24 19 7 23 10 11 7 9 11 3 2 4 5 1 18 23 9 17 16 16 16 15
7 2 8 9 8 9 13 18 6 4 7 6 7 19 15 4 16 14 16 16 21 18 18 14 13 11 15 11 9 10 13 8 4 7 1 9 7 7 6 11 6 17 16 18 14
6 8 7 9 7 11 16 17 4 6 6 8 7 8 6 1 20 9 11 11 2 6 4 10 11 12 15 1 11 10 10 8 12 5 16 7 7 19 8 11 8 9 16 17 14
7 4 7 8 12 19 15 9 9 5 11 7 13 13 9 7 16 6 4 9 6 3 6 6 12 14 4 6 6 16 14 17 18 6 8 5 3 3 11 6 6 9 12 19 15
6 6 3 9 12 18 13 12 15 4 10 5 12 9 15 12 18 20 7 6 6 5 4 8 13 13 6 13 10 19 18 13 18 8 8 12 3 14 20 32 11 9 10 14 15
8 7 10 14 1 5 6 4 6 16 5 9 8 14 15 10 13 10 13 14 10 17 9 11 13 16 15 16 9 20 15 3 19 21 5 12 10 18 21 17 10 10 11 10 13
9 9 8 6 12 7 9 12 11 10 12 2 10 13 8 10 3 14 24 17 9 9 26 9 10 15 14 13 7 6 7 5 17 9 16 15 11 28 21 13 12 10 10 11 10
Wind_Direction
357 356 353 350 342 336 333 320 310 304 296 292 292 295 298 307 296 235 251 213 162 175 218 220 226 230 233 257 262 39 16 268 108 110 138 115 121 120 185 127 117 86 140 139 144
356 354 351 349 343 334 326 312 305 303 291 289 292 295 304 316 269 254 62 132 156 174 206 214 205 213 233 220 57 59 298 332 76 97 143 155 148 133 148 129 100 111 125 137 151
355 354 350 347 344 336 326 318 309 293 290 293 292 297 306 300 266 145 203 158 173 187 247 208 193 212 232 235 144 174 222 190 164 136 146 140 76 55 147 58 119 143 143 139 144
352 352 349 346 342 336 327 310 290 287 295 295 294 301 307 253 329 108 176 190 182 208 248 188 215 212 266 275 153 177 211 133 84 134 112 98 109 102 94 186 224 150 138 150 162
351 350 348 345 341 335 325 305 295 290 289 292 294 305 271 225 146 136 165 174 190 205 218 265 288 346 213 229 165 158 124 94 141 15 115 137 126 133 148 174 240 157 148 161 168
349 348 346 343 339 334 322 302 287 284 284 284 290 299 247 254 116 154 185 175 207 211 222 57 269 244 266 88 35 171 207 119 190 117 102 109 121 131 152 172 219 144 156 163 165
347 346 343 340 338 330 319 301 286 278 282 279 276 270 260 8 148 170 174 191 219 71 323 164 239 260 339 314 196 191 152 148 168 140 120 113 128 95 121 129 77 149 160 158 178
345 343 341 337 335 327 316 300 285 274 275 266 267 256 277 75 149 181 215 222 149 130 230 256 260 246 165 233 271 95 353 343 151 159 138 187 128 134 127 133 143 159 155 168 162
342 340 338 334 332 323 314 302 277 265 252 256 235 233 185 151 177 184 233 259 207 202 210 264 258 264 277 264 225 76 155 284 288 174 163 198 127 142 145 144 160 161 176 175 154
338 337 334 330 328 323 314 294 315 249 223 220 258 242 164 180 171 226 269 253 283 268 257 245 251 56 32 320 134 199 151 166 269 168 197 172 122 146 159 150 152 182 164 176 167
336 333 330 326 325 324 311 200 203 196 218 209 176 235 169 163 151 201 226 253 258 259 251 22 350 180 236 233 263 215 190 178 214 165 184 65 142 148 165 144 158 165 180 188 177
333 328 325 324 319 320 274 247 308 37 185 236 264 226 133 145 168 144 246 257 241 259 79 31 320 275 270 282 223 208 206 173 123 149 35 331 127 139 166 156 163 164 170 180 178
329 324 319 320 322 258 228 240 264 321 222 201 243 211 144 189 150 138 191 247 283 17 48 61 228 267 295 278 216 96 354 174 183 120 111 243 134 138 160 179 159 159 180 179 189
324 319 314 319 279 215 218 241 252 270 279 179 200 225 181 198 146 171 245 248 250 339 37 304 267 266 270 310 330 177 20 290 164 173 141 183 36 17 332 244 186 165 180 180 194
320 312 304 259 323 251 88 244 229 243 261 167 188 205 191 211 145 188 199 225 219 119 105 262 283 326 306 277 330 48 128 289 257 237 139 225 89 291 330 294 192 203 188 176 179
315 306 304 214 222 254 310 284 235 225 261 159 170 188 197 213 185 145 178 207 244 153 208 239 286 266 251 282 250 328 253 272 324 278 229 112 99 248 236 234 206 192 184 193 172
308 283 254 311 230 259 231 249 221 249 234 139 161 186 205 191 144 135 157 202 217 217 248 247 246 244 227 250 237 224 289 339 325 233 321 127 101 269 224 233 199 186 179 190 177
288 258 217 244 285 263 261 234 260 236 242 155 159 180 206 192 193 154 161 211 235 240 274 281 221 228 189 228 293 284 167 180 268 216 119 120 145 185 203 214 183 176 179 180 181
306 187 232 223 219 273 239 222 268 277 166 146 166 178 194 207 194 176 157 204 221 208 233 304 319 310 301 234 230 269 241 300 300 4 45 96 5 10 340 141 153 165 172 173 175
252 197 172 127 174 219 232 222 259 266 291 165 175 189 197 195 208 184 178 178 206 226 216 226 236 284 265 229 260 280 301 300 335 35 353 96 90 150 296 150 148 156 166 167 171
243 206 123 166 184 225 236 230 223 253 321 36 326 295 227 184 190 230 203 208 211 228 226 225 244 291 276 209 248 206 234 244 233 171 285 75 117 191 205 132 153 157 163 161 170
274 233 147 172 211 224 236 263 340 25 191 139 342 269 337 315 195 213 215 216 205 209 220 228 256 196 227 209 191 242 272 293 358 279 63 73 0 42 122 158 140 157 156 156 175
265 111 160 206 233 228 233 264 248 285 296 304 183 173 218 247 261 270 207 78 101 218 286 247 230 267 272 235 224 243 255 252 182 143 94 112 283 267 287 126 156 126 154 146 168
272 144 151 217 271 285 261 242 227 222 305 309 315 313 280 46 14 298 201 151 159 102 349 293 237 239 260 88 351 307 321 327 332 75 104 98 224 23 347 112 151 146 151 154 178
267 351 116 184 226 256 284 234 235 210 207 307 297 280 346 64 4 330 332 351 186 105 245 253 264 261 268 150 340 293 281 316 309 300 169 169 194 115 106 258 156 136 143 166 180
347 352 331 302 343 283 287 298 287 27 351 335 332 5 329 89 178 279 303 322 47 328 208 236 261 278 288 125 277 267 241 138 298 279 128 154 110 139 196 217 149 143 155 173 186
359 321 287 280 278 224 21 10 25 20 303 14 343 330 357 84 275 203 257 293 144 293 278 293 359 341 278 290 256 223 282 220 222 246 54 68 79 154 182 156 150 151 161 164 185